This is the latest recevied weather packets stored in our database for station/object KB3KAV. If no packets are shown the sender has not sent any weather packets the latest 10 day(s).
| Time | Temp. | Humidity | Pressure | Rain* | Wind** | Luminosity | Snow |
|---|---|---|---|---|---|---|---|
| 1787466684 | 17.22° C | 95% | 1039.2 hPa | 0 mm | - | 0 W/m² | - |
| 1787466081 | 17.22° C | 95% | 1039.5 hPa | 3.05 mm | - | 0 W/m² | - |
| 1787465478 | 17.22° C | 95% | 1039.8 hPa | 6.1 mm | - | 0 W/m² | - |
| 1787464874 | 17.78° C | 95% | 1040.2 hPa | 4.83 mm | - | 0 W/m² | - |
| 1787464272 | 17.78° C | 95% | 1040.1 hPa | 1.27 mm | - | 0 W/m² | - |
| 1787463668 | 17.78° C | 95% | 1040.2 hPa | 3.56 mm | - | 0 W/m² | - |
| 1787463066 | 18.33° C | 95% | 1040.4 hPa | 8.89 mm | - | 0 W/m² | - |
| 1787462464 | 18.33° C | 94% | 1040.4 hPa | 18.03 mm | - | 0 W/m² | - |
| 1787461860 | 18.89° C | 93% | 1040.7 hPa | 10.67 mm | - | 0 W/m² | - |
| 1787461256 | 19.44° C | 90% | 1040.5 hPa | 0 mm | - | 0 W/m² | - |
| 1787460653 | 18.89° C | 91% | 1040.4 hPa | 0 mm | - | 0 W/m² | - |
| 1787460052 | 18.33° C | 94% | 1040.7 hPa | 0 mm | - | 0 W/m² | - |
| 1787459450 | 18.33° C | 94% | 1040.7 hPa | 0 mm | - | 0 W/m² | - |
| 1787458849 | 18.33° C | 94% | 1040.9 hPa | 0 mm | - | 0 W/m² | - |
| 1787458244 | 18.33° C | 94% | 1041.1 hPa | 0 mm | - | 0 W/m² | - |
| 1787457643 | 17.22° C | 95% | 1041 hPa | 0 mm | - | 0 W/m² | - |
| 1787457038 | 17.22° C | 95% | 1041.4 hPa | 0 mm | - | 0 W/m² | - |
| 1787456436 | 17.22° C | 95% | 1041.3 hPa | 0 mm | - | 0 W/m² | - |
| 1787455833 | 17.22° C | 95% | 1041.2 hPa | 0 mm | - | 0 W/m² | - |
| 1787455234 | 17.22° C | 95% | 1041.4 hPa | 0 mm | - | 0 W/m² | - |
| 1787454632 | 17.22° C | 95% | 1041.8 hPa | 0 mm | - | 0 W/m² | - |
| 1787454027 | 17.22° C | 95% | 1041.7 hPa | 0 mm | - | 0 W/m² | - |
| 1787453424 | 17.22° C | 95% | 1041.6 hPa | 0 mm | - | 0 W/m² | - |
| 1787452819 | 17.22° C | 95% | 1041.8 hPa | 0 mm | - | 0 W/m² | - |
| 1787452219 | 16.67° C | 95% | 1041.9 hPa | 0 mm | - | 0 W/m² | - |
* Rain latest hour (hover to see other rain measurements)
** Current wind speed in m/s (hover to see current wind gust speed)